Location: College Park
(38.9810°N, 76.9370°W)
Time: 19:14:17
(UTC-04:00)

Hubble Space Telescope - Visible Passes

Search period start: 26 May 2018 00:00
Search period end: 05 June 2018 00:00
Orbit: 537 x 541 km, 28.5° (Epoch: 26 May)

Date Brightness Start Highest point End Pass type
(mag) Time Alt. Az. Time Alt. Az. Time Alt. Az.
31 May 2.5 05:09:55 10° SW 05:12:50 19° S 05:15:45 10° SE visible
01 Jun 2.4 04:59:29 10° SW 05:02:23 19° S 05:05:21 10° SE visible
02 Jun 2.4 04:49:38 13° SW 04:51:57 19° S 04:54:54 10° SE visible
03 Jun 2.4 04:39:52 15° SSW 04:41:31 18° S 04:44:24 10° SE visible
04 Jun 2.4 04:30:12 16° SSW 04:31:04 17° S 04:33:51 10° SE visible
